Time,TemperatureF,DewpointF,PressureIn,WindDirection,WindDirectionDegrees,WindSpeedMPH,WindSpeedGustMPH,Humidity,HourlyPrecipIn,Conditions,Clouds,dailyrainin,SoftwareType,DateUTC
2013-01-17 00:01:00,31.3,28.8,30.23,NW,315,0.0,0.0,90,0.00,,,0.02,meteohub,2013-01-17 06:01:00,
2013-01-17 00:07:00,31.3,28.9,30.24,NW,315,0.0,0.0,91,0.00,,,0.02,meteohub,2013-01-17 06:07:00,
2013-01-17 00:12:00,31.5,29.1,30.24,NW,315,0.0,0.0,91,0.00,,,0.02,meteohub,2013-01-17 06:12:00,
2013-01-17 00:17:00,31.6,29.3,30.23,NW,315,0.0,0.0,91,0.00,,,0.00,meteohub,2013-01-17 06:17:00,
2013-01-17 00:22:00,31.6,29.1,30.23,NW,315,0.0,0.0,90,0.00,,,0.00,meteohub,2013-01-17 06:22:00,
2013-01-17 00:27:00,32.0,29.7,30.24,NW,315,0.0,0.0,91,0.00,,,0.00,meteohub,2013-01-17 06:27:00,
2013-01-17 00:32:00,32.2,29.7,30.24,NW,315,0.0,0.0,90,0.00,,,0.00,meteohub,2013-01-17 06:32:00,
2013-01-17 00:37:00,32.4,29.8,30.24,NW,315,0.0,0.0,90,0.00,,,0.00,meteohub,2013-01-17 06:37:00,
2013-01-17 00:42:00,32.5,29.3,30.24,NW,315,0.0,0.0,88,0.00,,,0.00,meteohub,2013-01-17 06:42:00,
2013-01-17 00:47:00,32.7,29.3,30.24,NW,315,0.0,0.0,87,0.00,,,0.00,meteohub,2013-01-17 06:47:00,
2013-01-17 00:52:00,32.9,29.5,30.24,NW,315,0.0,0.0,87,0.00,,,0.00,meteohub,2013-01-17 06:52:00,
2013-01-17 00:57:00,33.3,29.8,30.24,NW,315,0.0,0.0,87,0.00,,,0.00,meteohub,2013-01-17 06:57:00,
2013-01-17 01:02:00,33.3,29.8,30.24,NW,315,0.0,0.0,87,0.00,,,0.00,meteohub,2013-01-17 07:02:00,
2013-01-17 01:07:00,33.4,29.7,30.25,NW,315,0.0,0.0,86,0.00,,,0.00,meteohub,2013-01-17 07:07:00,
2013-01-17 01:12:00,33.6,29.8,30.25,NW,315,0.0,0.0,86,0.00,,,0.00,meteohub,2013-01-17 07:12:00,
2013-01-17 01:17:00,33.6,29.8,30.25,NW,315,0.0,0.0,86,0.00,,,0.00,meteohub,2013-01-17 07:17:00,
2013-01-17 01:22:00,33.8,29.8,30.25,NW,315,0.0,0.0,85,0.00,,,0.00,meteohub,2013-01-17 07:22:00,
2013-01-17 01:27:00,33.8,29.8,30.25,NW,315,0.0,0.0,85,0.00,,,0.00,meteohub,2013-01-17 07:27:00,
2013-01-17 01:32:00,33.8,29.8,30.25,NW,315,0.0,0.0,85,0.00,,,0.00,meteohub,2013-01-17 07:32:00,
2013-01-17 01:37:00,33.8,29.8,30.25,NW,315,0.0,0.0,85,0.00,,,0.00,meteohub,2013-01-17 07:37:00,
2013-01-17 01:42:00,33.8,29.8,30.26,NW,315,0.0,0.0,85,0.00,,,0.00,meteohub,2013-01-17 07:42:00,
2013-01-17 01:47:00,33.8,29.8,30.26,NW,315,0.0,0.0,85,0.00,,,0.00,meteohub,2013-01-17 07:47:00,
2013-01-17 01:52:00,33.6,29.7,30.26,NW,315,0.0,0.0,85,0.00,,,0.00,meteohub,2013-01-17 07:52:00,
2013-01-17 01:58:00,33.6,29.3,30.26,NW,315,0.0,0.0,84,0.00,,,0.00,meteohub,2013-01-17 07:58:00,
2013-01-17 02:03:00,33.4,29.1,30.26,NW,315,0.0,0.0,84,0.00,,,0.00,meteohub,2013-01-17 08:03:00,
2013-01-17 02:08:00,33.4,29.1,30.26,NW,315,0.0,0.0,84,0.00,,,0.00,meteohub,2013-01-17 08:08:00,
2013-01-17 02:14:00,33.3,28.6,30.26,NW,315,0.0,0.0,83,0.00,,,0.00,meteohub,2013-01-17 08:14:00,
2013-01-17 02:19:00,33.3,28.6,30.26,NW,315,0.0,0.0,83,0.00,,,0.00,meteohub,2013-01-17 08:19:00,
2013-01-17 02:24:00,33.1,28.4,30.26,NW,315,0.0,0.0,83,0.00,,,0.00,meteohub,2013-01-17 08:24:00,
2013-01-17 02:30:00,32.9,28.2,30.26,NW,315,0.0,0.0,83,0.00,,,0.00,meteohub,2013-01-17 08:30:00,
2013-01-17 02:35:00,32.7,28.2,30.26,NW,315,0.0,0.0,83,0.00,,,0.00,meteohub,2013-01-17 08:35:00,
2013-01-17 02:40:00,32.7,28.8,30.27,NW,315,0.0,0.0,85,0.00,,,0.00,meteohub,2013-01-17 08:40:00,
2013-01-17 02:45:00,32.7,28.9,30.26,NW,315,0.0,0.0,86,0.00,,,0.00,meteohub,2013-01-17 08:45:00,
2013-01-17 02:51:00,32.5,29.1,30.26,NW,315,0.0,0.0,87,0.00,,,0.00,meteohub,2013-01-17 08:51:00,
2013-01-17 02:56:00,32.5,29.1,30.26,NW,315,0.0,0.0,87,0.00,,,0.00,meteohub,2013-01-17 08:56:00,
2013-01-17 03:01:00,32.5,28.8,30.26,NW,315,0.0,0.0,86,0.00,,,0.00,meteohub,2013-01-17 09:01:00,
2013-01-17 03:07:00,32.4,28.6,30.26,NW,315,0.0,0.0,86,0.00,,,0.00,meteohub,2013-01-17 09:07:00,
2013-01-17 03:12:00,32.4,28.6,30.27,NW,315,0.0,0.0,86,0.00,,,0.00,meteohub,2013-01-17 09:12:00,
2013-01-17 03:17:00,32.4,28.6,30.27,NW,315,0.0,0.0,86,0.00,,,0.00,meteohub,2013-01-17 09:17:00,
2013-01-17 03:22:00,32.2,28.4,30.27,NW,315,0.0,0.0,86,0.00,,,0.00,meteohub,2013-01-17 09:22:00,
2013-01-17 03:27:00,32.2,28.4,30.27,NW,315,0.0,0.0,86,0.00,,,0.00,meteohub,2013-01-17 09:27:00,
2013-01-17 03:32:00,32.0,28.2,30.27,NW,315,0.0,0.0,86,0.00,,,0.00,meteohub,2013-01-17 09:32:00,
2013-01-17 03:37:00,31.8,28.4,30.27,NW,315,0.0,0.0,87,0.00,,,0.00,meteohub,2013-01-17 09:37:00,
2013-01-17 03:42:00,31.8,28.0,30.27,NW,315,0.0,0.0,86,0.00,,,0.00,meteohub,2013-01-17 09:42:00,
2013-01-17 03:48:00,31.6,27.9,30.27,NW,315,0.0,0.0,86,0.00,,,0.00,meteohub,2013-01-17 09:48:00,
2013-01-17 03:53:00,31.6,28.2,30.27,NW,315,0.0,0.0,87,0.00,,,0.00,meteohub,2013-01-17 09:53:00,
2013-01-17 03:58:00,31.5,28.0,30.27,NW,315,0.0,0.0,87,0.00,,,0.00,meteohub,2013-01-17 09:58:00,
2013-01-17 04:04:00,31.5,28.0,30.27,NW,315,0.0,0.0,87,0.00,,,0.00,meteohub,2013-01-17 10:04:00,
2013-01-17 04:09:00,31.5,28.4,30.27,NW,315,0.0,0.0,88,0.00,,,0.00,meteohub,2013-01-17 10:09:00,
2013-01-17 04:14:00,31.3,28.2,30.27,NW,315,0.0,0.0,88,0.00,,,0.00,meteohub,2013-01-17 10:14:00,
2013-01-17 04:19:00,31.3,28.4,30.27,NW,315,0.0,1.0,89,0.00,,,0.00,meteohub,2013-01-17 10:19:00,
2013-01-17 04:25:00,31.1,28.0,30.28,NW,315,0.0,1.0,88,0.00,,,0.00,meteohub,2013-01-17 10:25:00,
2013-01-17 04:30:00,30.9,27.9,30.28,NW,315,0.0,1.0,88,0.00,,,0.00,meteohub,2013-01-17 10:30:00,
2013-01-17 04:35:00,30.9,27.9,30.28,NW,315,0.0,1.0,88,0.00,,,0.00,meteohub,2013-01-17 10:35:00,
2013-01-17 04:41:00,30.9,27.9,30.28,NW,316,0.0,1.0,88,0.00,,,0.00,meteohub,2013-01-17 10:41:00,
2013-01-17 04:46:00,30.9,27.9,30.28,NW,320,0.0,1.0,88,0.00,,,0.00,meteohub,2013-01-17 10:46:00,
2013-01-17 04:51:00,31.3,27.5,30.28,NW,320,0.0,1.0,86,0.00,,,0.00,meteohub,2013-01-17 10:51:00,
2013-01-17 04:56:00,31.6,27.3,30.28,North,350,0.0,3.0,84,0.00,,,0.00,meteohub,2013-01-17 10:56:00,
2013-01-17 05:02:00,32.2,27.3,30.28,North,350,0.0,3.0,82,0.00,,,0.00,meteohub,2013-01-17 11:02:00,
2013-01-17 05:07:00,32.4,27.1,30.28,North,350,0.0,3.0,81,0.00,,,0.00,meteohub,2013-01-17 11:07:00,
2013-01-17 05:12:00,32.5,27.1,30.29,North,350,0.0,3.0,80,0.00,,,0.00,meteohub,2013-01-17 11:12:00,
2013-01-17 05:17:00,32.9,27.5,30.29,NNW,345,1.0,2.0,80,0.00,,,0.00,meteohub,2013-01-17 11:17:00,
2013-01-17 05:22:00,33.3,27.5,30.29,NNW,343,0.0,2.0,79,0.00,,,0.00,meteohub,2013-01-17 11:22:00,
2013-01-17 05:27:00,33.6,27.1,30.29,NNW,343,0.0,2.0,77,0.00,,,0.00,meteohub,2013-01-17 11:27:00,
2013-01-17 05:32:00,34.2,27.3,30.29,NNW,343,0.0,2.0,76,0.00,,,0.00,meteohub,2013-01-17 11:32:00,
2013-01-17 05:37:00,34.3,27.5,30.29,NNW,338,1.0,2.0,76,0.00,,,0.00,meteohub,2013-01-17 11:37:00,
2013-01-17 05:43:00,34.5,27.5,30.30,NNW,327,0.0,2.0,75,0.00,,,0.00,meteohub,2013-01-17 11:43:00,
2013-01-17 05:48:00,34.9,27.5,30.30,NNW,328,0.0,2.0,74,0.00,,,0.00,meteohub,2013-01-17 11:48:00,
2013-01-17 05:53:00,35.1,27.7,30.30,NNW,328,0.0,2.0,74,0.00,,,0.00,meteohub,2013-01-17 11:53:00,
2013-01-17 05:59:00,35.1,27.7,30.30,NNW,338,0.0,2.0,74,0.00,,,0.00,meteohub,2013-01-17 11:59:00,
2013-01-17 06:04:00,35.1,27.7,30.30,NNW,336,1.0,2.0,74,0.00,,,0.00,meteohub,2013-01-17 12:04:00,
2013-01-17 06:09:00,35.2,27.9,30.30,NNW,336,0.0,2.0,74,0.00,,,0.00,meteohub,2013-01-17 12:09:00,
2013-01-17 06:15:00,35.2,27.9,30.30,North,355,0.0,2.0,74,0.00,,,0.00,meteohub,2013-01-17 12:15:00,
2013-01-17 06:20:00,35.2,27.5,30.30,NW,325,0.0,2.0,73,0.00,,,0.00,meteohub,2013-01-17 12:20:00,
2013-01-17 06:25:00,35.2,27.5,30.30,NW,325,0.0,2.0,73,0.00,,,0.00,meteohub,2013-01-17 12:25:00,
2013-01-17 06:31:00,35.4,27.7,30.31,NW,325,0.0,5.0,73,0.00,,,0.00,meteohub,2013-01-17 12:31:00,
2013-01-17 06:36:00,35.4,27.7,30.31,NNW,334,0.0,5.0,73,0.00,,,0.00,meteohub,2013-01-17 12:36:00,
2013-01-17 06:42:00,35.4,27.7,30.31,NNW,334,0.0,5.0,73,0.00,,,0.00,meteohub,2013-01-17 12:42:00,
2013-01-17 06:47:00,35.4,28.0,30.32,NNW,329,1.0,5.0,74,0.00,,,0.00,meteohub,2013-01-17 12:47:00,
2013-01-17 06:52:00,35.2,27.9,30.32,NNW,329,0.0,5.0,74,0.00,,,0.00,meteohub,2013-01-17 12:52:00,
2013-01-17 06:57:00,35.4,28.0,30.32,NNW,329,0.0,3.0,74,0.00,,,0.00,meteohub,2013-01-17 12:57:00,
2013-01-17 07:02:00,35.2,27.9,30.32,NNW,329,0.0,3.0,74,0.00,,,0.00,meteohub,2013-01-17 13:02:00,
2013-01-17 07:07:00,35.2,27.9,30.32,NNW,329,0.0,3.0,74,0.00,,,0.00,meteohub,2013-01-17 13:07:00,
2013-01-17 07:12:00,35.2,28.0,30.33,NNW,329,0.0,3.0,75,0.00,,,0.00,meteohub,2013-01-17 13:12:00,
2013-01-17 07:18:00,35.2,28.0,30.34,NNW,329,0.0,3.0,75,0.00,,,0.00,meteohub,2013-01-17 13:18:00,
2013-01-17 07:23:00,35.2,28.0,30.34,NNW,329,0.0,3.0,75,0.00,,,0.00,meteohub,2013-01-17 13:23:00,
2013-01-17 07:28:00,35.2,28.0,30.34,NNW,329,0.0,2.0,75,0.00,,,0.00,meteohub,2013-01-17 13:28:00,
2013-01-17 07:34:00,35.2,28.0,30.34,NNW,329,0.0,2.0,75,0.00,,,0.00,meteohub,2013-01-17 13:34:00,
2013-01-17 07:39:00,35.2,28.4,30.35,NNW,329,0.0,2.0,76,0.00,,,0.00,meteohub,2013-01-17 13:39:00,
2013-01-17 07:45:00,35.2,28.4,30.35,NNW,329,0.0,2.0,76,0.00,,,0.00,meteohub,2013-01-17 13:45:00,
2013-01-17 07:50:00,35.2,28.4,30.35,NNW,329,0.0,2.0,76,0.00,,,0.00,meteohub,2013-01-17 13:50:00,
2013-01-17 07:55:00,35.2,28.4,30.35,NNW,329,0.0,1.0,76,0.00,,,0.00,meteohub,2013-01-17 13:55:00,
2013-01-17 08:00:00,35.2,28.8,30.35,NNW,329,0.0,1.0,77,0.00,,,0.00,meteohub,2013-01-17 14:00:00,
2013-01-17 08:06:00,35.1,28.2,30.35,NNW,329,0.0,1.0,76,0.00,,,0.00,meteohub,2013-01-17 14:06:00,
2013-01-17 08:11:00,35.1,28.6,30.36,NNW,329,0.0,1.0,77,0.00,,,0.00,meteohub,2013-01-17 14:11:00,
2013-01-17 08:17:00,35.1,28.6,30.36,NNW,329,0.0,1.0,77,0.00,,,0.00,meteohub,2013-01-17 14:17:00,
2013-01-17 08:22:00,35.1,28.9,30.36,NNW,329,0.0,1.0,78,0.00,,,0.00,meteohub,2013-01-17 14:22:00,
2013-01-17 08:27:00,35.1,28.9,30.36,NNW,329,0.0,1.0,78,0.00,,,0.00,meteohub,2013-01-17 14:27:00,
2013-01-17 08:32:00,35.2,29.3,30.36,NNW,344,0.0,1.0,79,0.00,,,0.00,meteohub,2013-01-17 14:32:00,
2013-01-17 08:37:00,36.0,30.0,30.37,North,350,1.0,1.0,79,0.00,,,0.00,meteohub,2013-01-17 14:37:00,
2013-01-17 08:43:00,37.2,30.9,30.37,North,5,1.0,7.0,78,0.00,,,0.00,meteohub,2013-01-17 14:43:00,
2013-01-17 08:48:00,39.6,32.0,30.37,NW,317,0.0,7.0,74,0.00,,,0.00,meteohub,2013-01-17 14:48:00,
2013-01-17 08:53:00,40.3,32.0,30.38,NNE,22,2.0,7.0,72,0.00,,,0.00,meteohub,2013-01-17 14:53:00,
2013-01-17 08:59:00,40.6,32.0,30.38,NW,321,1.0,6.0,71,0.00,,,0.00,meteohub,2013-01-17 14:59:00,
2013-01-17 09:04:00,41.4,32.7,30.38,North,355,0.0,6.0,71,0.00,,,0.00,meteohub,2013-01-17 15:04:00,
2013-01-17 09:09:00,41.9,33.3,30.39,North,5,1.0,6.0,71,0.00,,,0.00,meteohub,2013-01-17 15:09:00,
2013-01-17 09:14:00,42.4,33.4,30.39,NNW,327,1.0,6.0,70,0.00,,,0.00,meteohub,2013-01-17 15:14:00,
2013-01-17 09:20:00,43.2,33.3,30.40,NNW,333,1.0,6.0,68,0.00,,,0.00,meteohub,2013-01-17 15:20:00,
2013-01-17 09:25:00,43.3,33.1,30.40,North,0,0.0,6.0,67,0.00,,,0.00,meteohub,2013-01-17 15:25:00,
2013-01-17 09:30:00,43.9,33.6,30.40,North,0,2.0,10.0,67,0.00,,,0.00,meteohub,2013-01-17 15:30:00,
2013-01-17 09:35:00,43.9,33.6,30.41,NW,317,2.0,10.0,67,0.00,,,0.00,meteohub,2013-01-17 15:35:00,
2013-01-17 09:41:00,44.2,34.0,30.41,NW,319,5.0,10.0,67,0.00,,,0.00,meteohub,2013-01-17 15:41:00,
2013-01-17 09:46:00,45.0,34.3,30.41,NNW,331,3.0,5.0,66,0.00,,,0.00,meteohub,2013-01-17 15:46:00,
2013-01-17 09:51:00,45.3,34.3,30.41,North,355,2.0,5.0,65,0.00,,,0.00,meteohub,2013-01-17 15:51:00,
2013-01-17 09:56:00,46.0,34.5,30.42,NNW,348,1.0,5.0,64,0.00,,,0.00,meteohub,2013-01-17 15:56:00,
2013-01-17 10:02:00,46.9,35.4,30.42,NNE,22,2.0,6.0,64,0.00,,,0.00,meteohub,2013-01-17 16:02:00,
2013-01-17 10:07:00,47.7,34.9,30.42,NNE,16,2.0,6.0,61,0.00,,,0.00,meteohub,2013-01-17 16:07:00,
2013-01-17 10:12:00,47.8,34.7,30.42,North,11,2.0,6.0,60,0.00,,,0.00,meteohub,2013-01-17 16:12:00,
2013-01-17 10:17:00,48.2,34.9,30.42,North,5,3.0,7.0,60,0.00,,,0.00,meteohub,2013-01-17 16:17:00,
2013-01-17 10:22:00,48.6,34.9,30.42,North,9,1.0,7.0,59,0.00,,,0.00,meteohub,2013-01-17 16:22:00,
2013-01-17 10:27:00,49.1,34.9,30.43,North,0,2.0,7.0,58,0.00,,,0.00,meteohub,2013-01-17 16:27:00,
2013-01-17 10:32:00,49.6,36.0,30.43,North,350,1.0,7.0,59,0.00,,,0.00,meteohub,2013-01-17 16:32:00,
2013-01-17 10:37:00,49.8,35.6,30.43,NNW,328,5.0,7.0,58,0.00,,,0.00,meteohub,2013-01-17 16:37:00,
2013-01-17 10:42:00,50.4,35.8,30.43,NNW,340,2.0,7.0,57,0.00,,,0.00,meteohub,2013-01-17 16:42:00,
2013-01-17 10:47:00,50.7,36.0,30.43,NW,315,4.0,8.0,57,0.00,,,0.00,meteohub,2013-01-17 16:47:00,
2013-01-17 10:53:00,51.1,36.0,30.43,North,9,7.0,8.0,56,0.00,,,0.00,meteohub,2013-01-17 16:53:00,
2013-01-17 10:58:00,51.6,36.5,30.43,NW,316,7.0,10.0,56,0.00,,,0.00,meteohub,2013-01-17 16:58:00,
2013-01-17 11:03:00,52.3,36.1,30.43,NNW,342,1.0,10.0,54,0.00,,,0.00,meteohub,2013-01-17 17:03:00,
2013-01-17 11:09:00,52.3,35.8,30.43,NNW,338,2.0,10.0,53,0.00,,,0.00,meteohub,2013-01-17 17:09:00,
2013-01-17 11:14:00,52.9,36.1,30.43,North,355,3.0,10.0,53,0.00,,,0.00,meteohub,2013-01-17 17:14:00,
2013-01-17 11:19:00,53.1,36.3,30.43,North,355,3.0,10.0,53,0.00,,,0.00,meteohub,2013-01-17 17:19:00,
2013-01-17 11:25:00,53.2,36.1,30.43,NNE,13,6.0,10.0,52,0.00,,,0.00,meteohub,2013-01-17 17:25:00,
2013-01-17 11:30:00,53.8,36.5,30.43,North,355,3.0,8.0,52,0.00,,,0.00,meteohub,2013-01-17 17:30:00,
2013-01-17 11:35:00,54.0,36.3,30.42,NNE,21,3.0,8.0,51,0.00,,,0.00,meteohub,2013-01-17 17:35:00,
2013-01-17 11:40:00,54.3,37.0,30.42,NNE,19,5.0,8.0,52,0.00,,,0.00,meteohub,2013-01-17 17:40:00,
2013-01-17 11:46:00,54.1,36.3,30.42,NNW,346,4.0,12.0,51,0.00,,,0.00,meteohub,2013-01-17 17:46:00,
2013-01-17 11:51:00,54.7,36.3,30.42,North,5,3.0,12.0,50,0.00,,,0.00,meteohub,2013-01-17 17:51:00,
2013-01-17 11:56:00,54.5,36.3,30.42,North,355,3.0,12.0,50,0.00,,,0.00,meteohub,2013-01-17 17:56:00,
2013-01-17 12:02:00,54.7,36.3,30.41,NNE,30,3.0,11.0,50,0.00,,,0.00,meteohub,2013-01-17 18:02:00,
2013-01-17 12:07:00,54.7,36.9,30.41,NNE,31,3.0,11.0,51,0.00,,,0.00,meteohub,2013-01-17 18:07:00,
2013-01-17 12:12:00,55.0,36.7,30.41,North,355,1.0,11.0,50,0.00,,,0.00,meteohub,2013-01-17 18:12:00,
2013-01-17 12:17:00,55.8,37.9,30.41,NW,321,6.0,9.0,51,0.00,,,0.00,meteohub,2013-01-17 18:17:00,
2013-01-17 12:22:00,55.6,36.7,30.40,North,5,3.0,9.0,49,0.00,,,0.00,meteohub,2013-01-17 18:22:00,
2013-01-17 12:27:00,55.9,37.0,30.40,NNE,24,0.0,9.0,49,0.00,,,0.00,meteohub,2013-01-17 18:27:00,
2013-01-17 12:33:00,56.7,37.8,30.40,NNW,340,1.0,11.0,49,0.00,,,0.00,meteohub,2013-01-17 18:33:00,
2013-01-17 12:38:00,57.0,38.1,30.40,NW,324,5.0,11.0,49,0.00,,,0.00,meteohub,2013-01-17 18:38:00,
2013-01-17 12:43:00,57.2,37.2,30.40,NNE,25,5.0,11.0,47,0.00,,,0.00,meteohub,2013-01-17 18:43:00,
2013-01-17 12:49:00,57.2,37.2,30.39,NW,316,3.0,11.0,47,0.00,,,0.00,meteohub,2013-01-17 18:49:00,
2013-01-17 12:54:00,58.3,37.6,30.39,NNE,12,5.0,9.0,46,0.00,,,0.00,meteohub,2013-01-17 18:54:00,
2013-01-17 12:59:00,57.6,36.3,30.39,NNE,13,1.0,9.0,45,0.00,,,0.00,meteohub,2013-01-17 18:59:00,
2013-01-17 13:04:00,58.1,36.9,30.39,North,9,1.0,9.0,45,0.00,,,0.00,meteohub,2013-01-17 19:04:00,
2013-01-17 13:10:00,58.3,38.1,30.39,NNW,345,1.0,9.0,47,0.00,,,0.00,meteohub,2013-01-17 19:10:00,
2013-01-17 13:15:00,58.8,37.0,30.39,NNE,22,3.0,9.0,44,0.00,,,0.00,meteohub,2013-01-17 19:15:00,
2013-01-17 13:20:00,58.8,36.3,30.38,NNE,22,4.0,8.0,43,0.00,,,0.00,meteohub,2013-01-17 19:20:00,
2013-01-17 13:26:00,58.8,36.3,30.38,North,11,4.0,8.0,43,0.00,,,0.00,meteohub,2013-01-17 19:26:00,
2013-01-17 13:31:00,59.2,36.1,30.38,North,355,3.0,12.0,42,0.00,,,0.00,meteohub,2013-01-17 19:31:00,
2013-01-17 13:36:00,59.4,36.9,30.38,NNE,23,3.0,12.0,43,0.00,,,0.00,meteohub,2013-01-17 19:36:00,
2013-01-17 13:42:00,59.2,35.4,30.38,NE,49,3.0,12.0,41,0.00,,,0.00,meteohub,2013-01-17 19:42:00,
2013-01-17 13:47:00,59.4,35.6,30.38,NNW,346,8.0,10.0,41,0.00,,,0.00,meteohub,2013-01-17 19:47:00,
2013-01-17 13:52:00,59.7,36.0,30.38,NW,313,7.0,10.0,41,0.00,,,0.00,meteohub,2013-01-17 19:52:00,
2013-01-17 13:57:00,59.7,36.0,30.38,NNE,28,6.0,10.0,41,0.00,,,0.00,meteohub,2013-01-17 19:57:00,
2013-01-17 14:02:00,59.7,36.5,30.38,NW,313,5.0,15.0,42,0.00,,,0.00,meteohub,2013-01-17 20:02:00,
2013-01-17 14:07:00,60.1,35.6,30.38,North,5,6.0,15.0,40,0.00,,,0.00,meteohub,2013-01-17 20:07:00,
2013-01-17 14:12:00,59.7,36.0,30.38,NE,42,2.0,15.0,41,0.00,,,0.00,meteohub,2013-01-17 20:12:00,
2013-01-17 14:17:00,59.9,36.1,30.38,NE,38,2.0,12.0,41,0.00,,,0.00,meteohub,2013-01-17 20:17:00,
2013-01-17 14:22:00,59.7,35.4,30.37,NNE,24,4.0,12.0,40,0.00,,,0.00,meteohub,2013-01-17 20:22:00,
2013-01-17 14:27:00,60.1,35.6,30.37,NW,317,6.0,12.0,40,0.00,,,0.00,meteohub,2013-01-17 20:27:00,
2013-01-17 14:32:00,60.4,35.4,30.37,NE,40,5.0,13.0,39,0.00,,,0.00,meteohub,2013-01-17 20:32:00,
2013-01-17 14:37:00,60.6,36.1,30.37,North,5,3.0,13.0,40,0.00,,,0.00,meteohub,2013-01-17 20:37:00,
2013-01-17 14:42:00,61.0,36.5,30.37,NNE,12,2.0,13.0,40,0.00,,,0.00,meteohub,2013-01-17 20:42:00,
2013-01-17 14:47:00,61.2,36.7,30.37,WNW,297,4.0,10.0,40,0.00,,,0.00,meteohub,2013-01-17 20:47:00,
2013-01-17 14:52:00,61.0,36.5,30.37,NNE,28,2.0,10.0,40,0.00,,,0.00,meteohub,2013-01-17 20:52:00,
2013-01-17 14:57:00,61.0,36.5,30.37,North,5,4.0,10.0,40,0.00,,,0.00,meteohub,2013-01-17 20:57:00,
2013-01-17 15:03:00,60.4,35.4,30.38,NNE,28,5.0,14.0,39,0.00,,,0.00,meteohub,2013-01-17 21:03:00,
2013-01-17 15:08:00,60.3,35.2,30.38,NW,313,4.0,14.0,39,0.00,,,0.00,meteohub,2013-01-17 21:08:00,
2013-01-17 15:13:00,59.9,34.9,30.38,NNW,339,3.0,14.0,39,0.00,,,0.00,meteohub,2013-01-17 21:13:00,
2013-01-17 15:19:00,60.1,34.3,30.37,NNE,12,5.0,13.0,38,0.00,,,0.00,meteohub,2013-01-17 21:19:00,
2013-01-17 15:24:00,59.7,33.4,30.38,North,5,3.0,13.0,37,0.00,,,0.00,meteohub,2013-01-17 21:24:00,
2013-01-17 15:29:00,59.7,34.0,30.38,NE,44,5.0,13.0,38,0.00,,,0.00,meteohub,2013-01-17 21:29:00,
2013-01-17 15:34:00,60.1,35.1,30.38,North,11,4.0,9.0,39,0.00,,,0.00,meteohub,2013-01-17 21:34:00,
2013-01-17 15:40:00,60.3,34.5,30.38,NNE,15,2.0,9.0,38,0.00,,,0.00,meteohub,2013-01-17 21:40:00,
2013-01-17 15:45:00,60.3,35.2,30.38,NW,323,2.0,9.0,39,0.00,,,0.00,meteohub,2013-01-17 21:45:00,
2013-01-17 15:50:00,60.3,34.5,30.38,NNW,345,3.0,11.0,38,0.00,,,0.00,meteohub,2013-01-17 21:50:00,
2013-01-17 15:55:00,59.9,34.9,30.38,North,0,6.0,11.0,39,0.00,,,0.00,meteohub,2013-01-17 21:55:00,
2013-01-17 16:01:00,59.7,34.7,30.38,North,355,3.0,10.0,39,0.00,,,0.00,meteohub,2013-01-17 22:01:00,
2013-01-17 16:06:00,59.7,34.7,30.38,NNE,13,1.0,10.0,39,0.00,,,0.00,meteohub,2013-01-17 22:06:00,
2013-01-17 16:11:00,59.7,34.0,30.39,NNW,338,2.0,10.0,38,0.00,,,0.00,meteohub,2013-01-17 22:11:00,
2013-01-17 16:17:00,59.5,34.5,30.39,NNE,28,3.0,7.0,39,0.00,,,0.00,meteohub,2013-01-17 22:17:00,
2013-01-17 16:22:00,59.2,34.2,30.39,NNW,340,3.0,7.0,39,0.00,,,0.00,meteohub,2013-01-17 22:22:00,
2013-01-17 16:27:00,59.4,34.3,30.39,NNW,337,2.0,7.0,39,0.00,,,0.00,meteohub,2013-01-17 22:27:00,
2013-01-17 16:32:00,59.4,33.8,30.39,NNE,15,2.0,9.0,38,0.00,,,0.00,meteohub,2013-01-17 22:32:00,
2013-01-17 16:37:00,59.0,33.4,30.40,NNE,33,4.0,9.0,38,0.00,,,0.00,meteohub,2013-01-17 22:37:00,
2013-01-17 16:43:00,58.8,34.0,30.40,NE,40,1.0,9.0,39,0.00,,,0.00,meteohub,2013-01-17 22:43:00,
2013-01-17 16:48:00,58.6,34.3,30.40,NNE,29,0.0,10.0,40,0.00,,,0.00,meteohub,2013-01-17 22:48:00,
2013-01-17 16:53:00,58.6,33.8,30.40,NE,42,3.0,10.0,39,0.00,,,0.00,meteohub,2013-01-17 22:53:00,
2013-01-17 16:58:00,58.3,33.4,30.40,NNE,20,4.0,10.0,39,0.00,,,0.00,meteohub,2013-01-17 22:58:00,
2013-01-17 17:04:00,57.9,33.1,30.40,NE,40,3.0,8.0,39,0.00,,,0.00,meteohub,2013-01-17 23:04:00,
2013-01-17 17:09:00,57.7,32.9,30.40,NNE,15,1.0,8.0,39,0.00,,,0.00,meteohub,2013-01-17 23:09:00,
2013-01-17 17:14:00,57.4,33.3,30.41,NNE,18,4.0,8.0,40,0.00,,,0.00,meteohub,2013-01-17 23:14:00,
2013-01-17 17:19:00,57.0,32.9,30.41,NNE,29,4.0,7.0,40,0.00,,,0.00,meteohub,2013-01-17 23:19:00,
2013-01-17 17:25:00,56.7,33.3,30.40,NNE,31,2.0,7.0,41,0.00,,,0.00,meteohub,2013-01-17 23:25:00,
2013-01-17 17:30:00,56.3,32.9,30.41,NE,36,2.0,7.0,41,0.00,,,0.00,meteohub,2013-01-17 23:30:00,
2013-01-17 17:35:00,55.8,33.1,30.41,NE,34,2.0,7.0,42,0.00,,,0.00,meteohub,2013-01-17 23:35:00,
2013-01-17 17:41:00,55.2,33.1,30.41,NE,34,1.0,7.0,43,0.00,,,0.00,meteohub,2013-01-17 23:41:00,
2013-01-17 17:46:00,54.9,32.7,30.41,NE,40,1.0,4.0,43,0.00,,,0.00,meteohub,2013-01-17 23:46:00,
2013-01-17 17:51:00,54.3,32.9,30.42,NE,51,2.0,4.0,44,0.00,,,0.00,meteohub,2013-01-17 23:51:00,
2013-01-17 17:56:00,54.1,32.7,30.42,NE,36,1.0,4.0,44,0.00,,,0.00,meteohub,2013-01-17 23:56:00,
2013-01-17 18:02:00,53.8,32.9,30.42,NE,37,3.0,5.0,45,0.00,,,0.00,meteohub,2013-01-18 00:02:00,
2013-01-17 18:07:00,53.6,32.7,30.42,NE,39,1.0,5.0,45,0.00,,,0.00,meteohub,2013-01-18 00:07:00,
2013-01-17 18:12:00,53.4,33.1,30.42,NE,39,0.0,5.0,46,0.00,,,0.00,meteohub,2013-01-18 00:12:00,
2013-01-17 18:17:00,52.5,32.9,30.42,NE,39,0.0,4.0,47,0.00,,,0.00,meteohub,2013-01-18 00:17:00,
2013-01-17 18:22:00,51.8,32.7,30.42,NE,39,0.0,4.0,48,0.00,,,0.00,meteohub,2013-01-18 00:22:00,
2013-01-17 18:28:00,51.3,33.3,30.42,NE,39,0.0,4.0,50,0.00,,,0.00,meteohub,2013-01-18 00:28:00,
2013-01-17 18:33:00,50.7,32.7,30.43,NE,39,0.0,4.0,50,0.00,,,0.00,meteohub,2013-01-18 00:33:00,
2013-01-17 18:39:00,50.7,32.7,30.42,NE,39,0.0,4.0,50,0.00,,,0.00,meteohub,2013-01-18 00:39:00,
2013-01-17 18:44:00,50.4,32.9,30.42,NE,39,0.0,1.0,51,0.00,,,0.00,meteohub,2013-01-18 00:44:00,
2013-01-17 18:49:00,49.8,32.9,30.43,NE,39,0.0,1.0,52,0.00,,,0.00,meteohub,2013-01-18 00:49:00,
2013-01-17 18:54:00,49.6,32.7,30.43,NE,39,1.0,1.0,52,0.00,,,0.00,meteohub,2013-01-18 00:54:00,
2013-01-17 19:00:00,49.6,32.7,30.43,NE,39,0.0,1.0,52,0.00,,,0.00,meteohub,2013-01-18 01:00:00,
2013-01-17 19:05:00,49.5,33.1,30.43,NE,39,0.0,2.0,53,0.00,,,0.00,meteohub,2013-01-18 01:05:00,
2013-01-17 19:10:00,49.3,32.9,30.43,NE,39,0.0,2.0,53,0.00,,,0.00,meteohub,2013-01-18 01:10:00,
2013-01-17 19:16:00,48.7,32.9,30.43,NE,39,0.0,2.0,54,0.00,,,0.00,meteohub,2013-01-18 01:16:00,
2013-01-17 19:21:00,48.6,32.7,30.43,NE,39,0.0,1.0,54,0.00,,,0.00,meteohub,2013-01-18 01:21:00,
2013-01-17 19:26:00,48.4,32.9,30.43,NE,39,0.0,1.0,55,0.00,,,0.00,meteohub,2013-01-18 01:26:00,
2013-01-17 19:31:00,47.8,32.9,30.43,NE,39,0.0,1.0,56,0.00,,,0.00,meteohub,2013-01-18 01:31:00,
2013-01-17 19:37:00,47.5,33.1,30.43,NE,39,0.0,1.0,57,0.00,,,0.00,meteohub,2013-01-18 01:37:00,
2013-01-17 19:42:00,47.3,32.9,30.44,NE,39,0.0,0.0,57,0.00,,,0.00,meteohub,2013-01-18 01:42:00,
2013-01-17 19:47:00,46.9,32.9,30.44,NE,39,0.0,0.0,58,0.00,,,0.00,meteohub,2013-01-18 01:47:00,
2013-01-17 19:52:00,46.6,33.4,30.44,NE,39,0.0,0.0,60,0.00,,,0.00,meteohub,2013-01-18 01:52:00,
2013-01-17 19:57:00,45.9,33.3,30.44,NE,39,0.0,0.0,61,0.00,,,0.00,meteohub,2013-01-18 01:57:00,
2013-01-17 20:02:00,45.7,33.4,30.44,NE,39,0.0,0.0,62,0.00,,,0.00,meteohub,2013-01-18 02:02:00,
2013-01-17 20:07:00,45.3,33.1,30.44,NE,39,0.0,0.0,62,0.00,,,0.00,meteohub,2013-01-18 02:07:00,
2013-01-17 20:12:00,45.1,33.3,30.45,NE,39,0.0,0.0,63,0.00,,,0.00,meteohub,2013-01-18 02:12:00,
2013-01-17 20:17:00,45.0,33.1,30.45,NE,39,0.0,0.0,63,0.00,,,0.00,meteohub,2013-01-18 02:17:00,
2013-01-17 20:22:00,44.8,33.3,30.45,NE,39,0.0,0.0,64,0.00,,,0.00,meteohub,2013-01-18 02:22:00,
2013-01-17 20:27:00,44.6,33.3,30.45,NE,39,0.0,0.0,64,0.00,,,0.00,meteohub,2013-01-18 02:27:00,
2013-01-17 20:32:00,44.6,33.3,30.45,NE,39,0.0,0.0,64,0.00,,,0.00,meteohub,2013-01-18 02:32:00,
2013-01-17 20:38:00,44.4,33.1,30.45,NE,39,0.0,0.0,64,0.00,,,0.00,meteohub,2013-01-18 02:38:00,
2013-01-17 20:43:00,44.2,33.3,30.45,NE,39,0.0,0.0,65,0.00,,,0.00,meteohub,2013-01-18 02:43:00,
2013-01-17 20:48:00,44.1,33.1,30.45,NE,39,0.0,0.0,65,0.00,,,0.00,meteohub,2013-01-18 02:48:00,
2013-01-17 20:53:00,43.5,32.9,30.46,NE,39,0.0,0.0,66,0.00,,,0.00,meteohub,2013-01-18 02:53:00,
2013-01-17 20:59:00,43.0,33.8,30.46,NE,39,0.0,0.0,70,0.00,,,0.00,meteohub,2013-01-18 02:59:00,
2013-01-17 21:04:00,41.9,33.6,30.46,NE,39,0.0,0.0,72,0.00,,,0.00,meteohub,2013-01-18 03:04:00,
2013-01-17 21:10:00,41.4,33.6,30.46,NE,39,0.0,1.0,74,0.00,,,0.00,meteohub,2013-01-18 03:10:00,
2013-01-17 21:15:00,41.2,33.4,30.46,NE,39,0.0,1.0,74,0.00,,,0.00,meteohub,2013-01-18 03:15:00,
2013-01-17 21:20:00,41.4,33.4,30.46,NE,39,0.0,0.0,73,0.00,,,0.00,meteohub,2013-01-18 03:20:00,
2013-01-17 21:25:00,41.4,33.4,30.47,NE,39,0.0,0.0,73,0.00,,,0.00,meteohub,2013-01-18 03:25:00,
2013-01-17 21:31:00,41.2,33.3,30.47,NE,39,0.0,0.0,73,0.00,,,0.00,meteohub,2013-01-18 03:31:00,
2013-01-17 21:36:00,40.8,33.3,30.47,NE,39,0.0,0.0,74,0.00,,,0.00,meteohub,2013-01-18 03:36:00,
2013-01-17 21:41:00,40.5,33.1,30.47,NE,39,0.0,0.0,75,0.00,,,0.00,meteohub,2013-01-18 03:41:00,
2013-01-17 21:47:00,40.3,33.3,30.47,NE,39,0.0,0.0,76,0.00,,,0.00,meteohub,2013-01-18 03:47:00,
2013-01-17 21:52:00,40.3,33.3,30.47,NE,39,0.0,0.0,76,0.00,,,0.00,meteohub,2013-01-18 03:52:00,
2013-01-17 21:57:00,40.1,33.1,30.47,NE,39,0.0,0.0,76,0.00,,,0.00,meteohub,2013-01-18 03:57:00,
2013-01-17 22:02:00,39.7,32.7,30.47,NE,39,0.0,0.0,76,0.00,,,0.00,meteohub,2013-01-18 04:02:00,
2013-01-17 22:07:00,39.7,33.1,30.47,NE,39,0.0,0.0,77,0.00,,,0.00,meteohub,2013-01-18 04:07:00,
2013-01-17 22:13:00,39.4,33.1,30.47,NE,39,0.0,0.0,78,0.00,,,0.00,meteohub,2013-01-18 04:13:00,
2013-01-17 22:18:00,39.2,32.9,30.47,NE,39,0.0,0.0,78,0.00,,,0.00,meteohub,2013-01-18 04:18:00,
2013-01-17 22:23:00,39.0,32.7,30.47,NE,39,0.0,0.0,78,0.00,,,0.00,meteohub,2013-01-18 04:23:00,
2013-01-17 22:29:00,38.8,32.9,30.48,NE,39,0.0,0.0,79,0.00,,,0.00,meteohub,2013-01-18 04:29:00,
2013-01-17 22:34:00,38.5,33.1,30.48,NE,39,0.0,0.0,81,0.00,,,0.00,meteohub,2013-01-18 04:34:00,
2013-01-17 22:39:00,37.9,32.9,30.48,NE,39,0.0,0.0,82,0.00,,,0.00,meteohub,2013-01-18 04:39:00,
2013-01-17 22:45:00,38.3,32.9,30.48,NE,39,0.0,0.0,81,0.00,,,0.00,meteohub,2013-01-18 04:45:00,
2013-01-17 22:50:00,38.7,33.1,30.48,NE,39,0.0,0.0,80,0.00,,,0.00,meteohub,2013-01-18 04:50:00,
2013-01-17 22:55:00,38.8,32.9,30.48,NE,39,0.0,0.0,79,0.00,,,0.00,meteohub,2013-01-18 04:55:00,
2013-01-17 23:02:00,38.5,32.9,30.48,NE,39,0.0,0.0,80,0.00,,,0.00,meteohub,2013-01-18 05:02:00,
2013-01-17 23:03:00,38.5,32.5,30.48,NE,39,0.0,0.0,79,0.00,,,0.00,meteohub,2013-01-18 05:03:00,
2013-01-17 23:04:00,38.3,32.7,30.48,NE,39,0.0,0.0,80,0.00,,,0.00,meteohub,2013-01-18 05:04:00,
2013-01-17 23:05:00,38.1,32.5,30.48,NE,39,0.0,0.0,80,0.00,,,0.00,meteohub,2013-01-18 05:05:00,
2013-01-17 23:11:00,37.8,32.7,30.48,NE,39,0.0,0.0,82,0.00,,,0.00,meteohub,2013-01-18 05:11:00,
2013-01-17 23:16:00,37.6,32.4,30.48,NE,39,0.0,0.0,81,0.00,,,0.00,meteohub,2013-01-18 05:16:00,
2013-01-17 23:21:00,37.6,32.5,30.48,NE,39,0.0,0.0,82,0.00,,,0.00,meteohub,2013-01-18 05:21:00,
2013-01-17 23:26:00,37.4,32.4,30.48,NE,39,0.0,0.0,82,0.00,,,0.00,meteohub,2013-01-18 05:26:00,
2013-01-17 23:32:00,37.2,32.2,30.48,NE,39,0.0,0.0,82,0.00,,,0.00,meteohub,2013-01-18 05:32:00,
2013-01-17 23:37:00,37.0,32.0,30.48,NE,39,0.0,0.0,82,0.00,,,0.00,meteohub,2013-01-18 05:37:00,
2013-01-17 23:42:00,37.0,32.0,30.49,NE,39,0.0,0.0,82,0.00,,,0.00,meteohub,2013-01-18 05:42:00,
2013-01-17 23:47:00,36.9,32.2,30.49,NE,39,0.0,0.0,83,0.00,,,0.00,meteohub,2013-01-18 05:47:00,
2013-01-17 23:52:00,36.9,32.2,30.49,NE,39,0.0,0.0,83,0.00,,,0.00,meteohub,2013-01-18 05:52:00,
2013-01-17 23:57:00,36.7,32.0,30.49,NE,39,0.0,0.0,83,0.00,,,0.00,meteohub,2013-01-18 05:57:00,